TA2DMX-13 Weather Reports


time (UTC)temp
C
wind
direction
speed
KPH
gust
KPH
rain 1hr
cm
rain 24hr
cm
rain mn
cm
humidity
%
barometer
mb
20260504080911 15 225 0.0 0.0 0.00 0.00 0.00 53 1009.1
20260504045108 12 315 0.0 0.0 0.00 0.00 0.00 64 1008.2
20260504043406 12 270 0.0 0.0 0.00 0.00 0.00 64 1008.2
20260504041803 12 270 0.0 0.0 0.00 0.00 0.00 66 1008.1
20260504040159 11 270 0.0 0.0 0.00 0.00 0.00 67 1008.1
20260504030810 11 315 0.0 0.0 0.00 0.00 0.00 69 1007.7
20260504025208 11 0 0.0 0.0 0.00 0.00 0.00 67 1007.6
20260504023605 11 0 0.0 0.0 0.00 0.00 0.00 66 1007.5
20260504014507 11 45 0.0 0.0 0.00 0.00 0.00 66 1007.3
20260504013004 11 270 0.0 0.0 0.00 0.00 0.00 66 1007.3
20260504005914 11 315 0.0 0.0 0.00 0.00 0.00 66 1007.2
20260504004310 11 315 0.0 0.0 0.00 0.00 0.00 66 1007.0
20260504002707 11 270 0.0 0.0 0.00 0.00 0.00 65 1007.1
20260504001103 11 270 0.0 0.0 0.00 0.00 0.00 64 1007.0
20260503231534 11 270 0.0 0.0 0.00 0.00 0.00 65 1007.0
20260503230030 11 270 0.0 0.0 0.00 0.00 0.00 65 1007.1
20260503224528 11 225 0.0 0.0 0.00 0.00 0.00 65 1007.0
20260503223025 11 225 0.0 0.0 0.00 0.00 0.00 65 1007.1
20260503221523 11 270 0.0 0.0 0.00 0.00 0.00 64 1007.1
20260503220021 11 0 0.0 0.0 0.00 0.00 0.00 64 1007.1
20260503214518 11 270 0.0 0.0 0.00 0.00 0.00 63 1007.2
20260503213016 11 0 0.0 0.0 0.00 0.00 0.00 63 1007.3
20260503211512 11 0 0.0 0.0 0.00 0.00 0.00 64 1007.2
20260503210009 11 225 0.0 0.0 0.00 0.00 0.00 64 1007.2
20260503204508 11 270 0.0 0.0 0.00 0.00 0.00 63 1007.4
20260503200912 11 270 0.0 0.0 0.00 0.00 0.00 62 1007.4
20260503193807 11 0 0.0 0.0 0.00 0.00 0.00 62 1007.8
20260503192203 11 270 0.0 0.0 0.00 0.00 0.00 63 1007.7
20260503190010 11 270 0.0 0.0 0.00 0.00 0.00 65 1007.8
20260503183010 11 270 0.0 0.0 0.00 0.00 0.00 65 1007.8
20260503181507 11 315 0.0 0.0 0.00 0.00 0.00 65 1007.8
20260503180005 11 0 0.0 0.0 0.00 0.00 0.00 65 1007.8
20260503172604 11 0 0.0 0.0 0.00 0.00 0.00 66 1007.7